{"data":{"norad_id":56391,"epoch":"2026-09-20T03:42:19.243296Z","epoch_age_seconds":141870,"freshness":"FRESH","line1":"1 56391U 23061T   26263.15438939  .00000206  00000+0  17013-4 0  9990","line2":"2 56391  43.0033 179.3953 0001136 270.2849  89.7873 15.27575688186493","mean_motion":15.27575688,"eccentricity":0.0001136,"inclination_deg":43.0033,"raan_deg":179.3953,"arg_perigee_deg":270.2849,"mean_anomaly_deg":89.7873,"bstar":1.7013e-5,"rev_number":18649,"period_min":94.267014807321,"perigee_km":482.28257554198,"apogee_km":483.84143995654,"semimajor_km":6861.1990077493,"source":"CELESTRAK","updated_at":"2026-09-21T09:00:33.433331Z"}}